Regional Weather Roundup
Issued by NWS Charleston, WV

Home | Current Version | Previous Version | Graphics & Text | Print | Product List | Glossary On
Versions: 1 2 3 4 5 6 7 8 9 10 11 12 13 14 15 16 17 18 19 20 21 22 23 24 25 26 27 28 29 30 31 32 33 34 35 36 37 38 39 40 41 42 43 44 45 46 47 48 49 50
000
ASUS41 KRLX 282010
RWRRLX
West Virginia Regional Weather Roundup
National Weather Service Charleston WV
400 PM EDT WED SEP 28 2016

Note: "fair" indicates few or no clouds below 12,000 feet with no
significant weather and/or obstructions to visibility.

WVZ003-282100-
Northern Panhandle of West Virginia

CITY           SKY/WX    TMP DP  RH WIND       PRES   REMARKS
WHEELING       MOSUNNY   76  41  28 S5        29.89F
$$

WVZ009-282100-
Northwest West Virginia

CITY           SKY/WX    TMP DP  RH WIND       PRES   REMARKS
PARKERSBURG    PTSUNNY   77  42  28 S3        29.89S
$$

WVZ006-282100-
Western West Virginia

CITY           SKY/WX    TMP DP  RH WIND       PRES   REMARKS
HUNTINGTON     PTSUNNY   80  45  28 S7        29.83F
$$

WVZ015-282100-
West Central West Virginia

CITY           SKY/WX    TMP DP  RH WIND       PRES   REMARKS
CHARLESTON     MOSUNNY   80  40  23 MISG      29.86F
$$

WVZ022-031-282100-
North Central West Virginia

CITY           SKY/WX    TMP DP  RH WIND       PRES   REMARKS
CLARKSBURG     SUNNY     78  47  33 S7        29.88F
MORGANTOWN     MOSUNNY   75  56  51 E10G23    29.91F
$$

WVZ025-035-042-045-282100-
Southern West Virginia

CITY           SKY/WX    TMP DP  RH WIND       PRES   REMARKS
BECKLEY        SUNNY     76  45  33 SW7       29.92F
LOGAN            N/A     75  46  35 CALM      29.88F
BLUEFIELD      SUNNY     75  45  34 SW15G23   29.95F
LEWISBURG      MOSUNNY   73  57  57 SE6       29.93F
$$

WVZ047-282100-
Northern Mountains of West Virginia

CITY           SKY/WX    TMP DP  RH WIND       PRES   REMARKS
ELKINS         SUNNY     79  44  28 S13G20    29.91F
$$

WVZ052-282100-
Eastern Panhandle of West Virginia

CITY           SKY/WX    TMP DP  RH WIND       PRES   REMARKS
MARTINSBURG    CLOUDY    67  59  75 E8        30.01F
PETERSBURG     CLOUDY    66  56  68 N6        29.98F
$$




USA.gov is the U.S. government's official web portal to all federal, state and local government web resources and services.